Raton, NM

12:14 AM MDT on August 20, 2017 (GMT -0600)
Raton Municipal-Crews

Weather History for KRTN - February, 2014

Change the Weather History Date:

Saturday, February 22, 2014

  Actual Average (KTAD) Record (KTAD)
Temperature  
Mean Temperature 39 °F -  
Max Temperature 57 °F 52 °F 77 °F (1982)
Min Temperature 21 °F 21 °F -3 °F (1960)
Degree Days  
Heating Degree Days 26    
Moisture  
Dew Point 4 °F    
Average Humidity 25    
Maximum Humidity 44    
Minimum Humidity 10    
Precipitation  
Precipitation 0.00 in - - ()
Sea Level Pressure  
Sea Level Pressure 29.81 in    
Wind  
Wind Speed 10 mph (NW)    
Max Wind Speed 26 mph    
Max Gust Speed 37 mph    
Visibility 10 miles    
Events      
Averages and records for this station are not official NWS values.
T = Trace of Precipitation, MM = Missing Value Source: NWS Daily Summary

Daily Weather History Graph

Daily Weather History Graph

Search for Another Location

Airport or City:

Trip Planner

Search our weather history database for the weather conditions in past years. The results will help you decide how hot, cold, wet, or windy it might be!

Date:

Astronomy

Feb. 22, 2014 Rise Set
Actual Time 6:37 AM MST 5:45 PM MST
Civil Twilight 6:11 AM MST 6:11 PM MST
Nautical Twilight 5:41 AM MST 6:41 PM MST
Astronomical Twilight 5:11 AM MST 7:11 PM MST
Moon 12:31 AM MST (2/22) 11:02 AM MST (2/22)
Length of Visible Light 12h 00m
Length of Day
11h 07m
Waning Gibbous, 49% of the Moon is Illuminated
Feb 22
Waning Gibbous
Mar 1
New
Mar 8
First Quarter
Mar 16
Full
Mar 23
Last Quarter

Hourly Weather History & Observations

Time (MST) Temp. Windchill Dew Point Humidity Pressure Visibility Wind Dir Wind Speed Gust Speed Precip Events Conditions
12:53 AM 26.1 °F 19.4 °F 1.9 °F 35% 29.85 in 10.0 mi North 5.8 mph - N/A   Clear
1:53 AM 23.0 °F 14.7 °F 3.0 °F 42% 29.84 in 10.0 mi NE 6.9 mph - N/A   Clear
2:53 AM 23.0 °F 15.8 °F 1.9 °F 40% 29.83 in 10.0 mi North 5.8 mph - N/A   Clear
3:53 AM 21.0 °F 13.4 °F 1.9 °F 44% 29.85 in 10.0 mi North 5.8 mph - N/A   Clear
4:53 AM 23.0 °F 14.7 °F 3.0 °F 42% 29.85 in 10.0 mi NNE 6.9 mph - N/A   Clear
5:53 AM 23.0 °F 18.4 °F 3.0 °F 42% 29.91 in 10.0 mi NE 3.5 mph - N/A   Clear
6:53 AM 24.1 °F 17.0 °F 3.9 °F 42% 29.91 in 10.0 mi NE 5.8 mph - N/A   Clear
7:53 AM 30.9 °F 27.5 °F 7.0 °F 37% 29.90 in 10.0 mi NE 3.5 mph - N/A   Clear
8:53 AM 39.9 °F 37.8 °F 7.0 °F 26% 29.88 in 10.0 mi NE 3.5 mph - N/A   Clear
9:53 AM 45.0 °F 40.6 °F 10.0 °F 24% 29.86 in 10.0 mi South 8.1 mph - N/A   Clear
10:53 AM 51.1 °F - 12.0 °F 21% 29.81 in 10.0 mi South 10.4 mph - N/A   Clear
11:53 AM 57.0 °F - 6.1 °F 13% 29.76 in 10.0 mi West 23.0 mph 31.1 mph N/A   Clear
12:53 PM 57.9 °F - 1.9 °F 10% 29.72 in 10.0 mi WNW 16.1 mph 27.6 mph N/A   Clear
1:53 PM 57.9 °F - 1.9 °F 10% 29.72 in 10.0 mi WNW 15.0 mph 35.7 mph N/A   Clear
2:53 PM 57.9 °F - -0.0 °F 10% 29.71 in 10.0 mi West 25.3 mph 34.5 mph N/A   Clear
3:53 PM 57.0 °F - 1.9 °F 11% 29.74 in 10.0 mi WNW 21.9 mph 26.5 mph N/A   Clear
4:53 PM 54.0 °F - -0.9 °F 11% 29.77 in 10.0 mi WNW 21.9 mph 33.4 mph N/A   Clear
5:53 PM 50.0 °F - 1.9 °F 14% 29.80 in 10.0 mi West 19.6 mph 29.9 mph N/A   Clear
6:53 PM 48.0 °F - 5.0 °F 17% 29.85 in 10.0 mi West 12.7 mph 19.6 mph N/A   Clear
7:53 PM 46.0 °F 39.0 °F 6.1 °F 20% 29.82 in 10.0 mi West 17.3 mph 26.5 mph N/A   Clear
8:53 PM 46.0 °F 37.2 °F 6.1 °F 20% 29.78 in 10.0 mi West 26.5 mph 36.8 mph N/A   Clear
9:53 PM 46.9 °F - 6.1 °F 19% 29.79 in 10.0 mi WNW 17.3 mph 25.3 mph N/A   Clear
10:53 PM 45.0 °F 39.7 °F 5.0 °F 19% 29.79 in 10.0 mi WNW 10.4 mph 23.0 mph N/A   Clear
11:53 PM 37.9 °F 34.4 °F 5.0 °F 25% 29.81 in 10.0 mi Variable 4.6 mph - N/A   Clear